This is the latest recevied weather packets stored in our database for station/object KB3HLL. If no packets are shown the sender has not sent any weather packets the latest 10 day(s).
| Time | Temp. | Humidity | Pressure | Rain* | Wind** | Luminosity | Snow |
|---|---|---|---|---|---|---|---|
| 1777915278 | 17.78° C | 54% | 1012 hPa | 0 mm | - | 1193 W/m² | - |
| 1777914981 | 17.78° C | 53% | 1012.1 hPa | 0 mm | - | 1122 W/m² | - |
| 1777914678 | 17.22° C | 54% | 1012.2 hPa | 0 mm | - | 1150 W/m² | - |
| 1777914378 | 16.67° C | 55% | 1012.2 hPa | 0 mm | - | 531 W/m² | - |
| 1777914078 | 16.67° C | 55% | 1012.2 hPa | 0 mm | - | 510 W/m² | - |
| 1777913779 | 16.67° C | 55% | 1012.2 hPa | 0 mm | - | 974 W/m² | - |
| 1777913478 | 16.67° C | 56% | 1012.2 hPa | 0 mm | - | 1018 W/m² | - |
| 1777913177 | 16.11° C | 56% | 1012.1 hPa | 0 mm | - | 1069 W/m² | - |
| 1777912878 | 16.11° C | 55% | 1012.3 hPa | 0 mm | - | 383 W/m² | - |
| 1777912578 | 16.11° C | 56% | 1012.3 hPa | 0 mm | - | 277 W/m² | - |
| 1777912278 | 16.11° C | 55% | 1012.3 hPa | 0 mm | - | 1088 W/m² | - |
| 1777911978 | 15.56° C | 56% | 1012.3 hPa | 0 mm | - | 1044 W/m² | - |
| 1777911678 | 15° C | 58% | 1012.4 hPa | 0 mm | - | 929 W/m² | - |
| 1777911378 | 14.44° C | 58% | 1012.5 hPa | 0 mm | - | 633 W/m² | - |
| 1777911078 | 14.44° C | 59% | 1012.6 hPa | 0 mm | - | 316 W/m² | - |
| 1777910778 | 14.44° C | 60% | 1012.7 hPa | 0 mm | - | 580 W/m² | - |
| 1777910478 | 15° C | 59% | 1012.8 hPa | 0 mm | - | 422 W/m² | - |
| 1777910178 | 15° C | 59% | 1012.8 hPa | 0 mm | - | 588 W/m² | - |
| 1777909879 | 14.44° C | 58% | 1012.9 hPa | 0 mm | - | 367 W/m² | - |
| 1777909578 | 15° C | 58% | 1013 hPa | 0 mm | - | 235 W/m² | - |
| 1777909278 | 14.44° C | 58% | 1013 hPa | 0 mm | - | 488 W/m² | - |
| 1777908978 | 13.89° C | 59% | 1013 hPa | 0 mm | - | 990 W/m² | - |
| 1777908679 | 13.33° C | 60% | 1013.3 hPa | 0 mm | - | 1020 W/m² | - |
| 1777908378 | 13.33° C | 61% | 1013.1 hPa | 0 mm | - | 505 W/m² | - |
| 1777908080 | 13.33° C | 60% | 1013.1 hPa | 0 mm | - | 945 W/m² | - |
* Rain latest hour (hover to see other rain measurements)
** Current wind speed in m/s (hover to see current wind gust speed)